Portada
METAR-TAF:

METAR-TAF

Aeroports :

Cruzeiro do Sul, Acre, Brasil

latitud: 07-38S, longitud: 072-40W, altitud: 170 m

Observació

L'informe es va fer fa 2 hores i 45 minuts, a les 08:00 UTC
Vent calma
Temperatura 24°C
Humitat 100%
Pressió 1007 hPa
Visibilitat 10 km o més
sense núvols per sota de 1500 mi sense presència de cumulonimbus.

METAR: SBCZ 120800Z 00000KT CAVOK 24/24 Q1007

Hora: 05:45 (10:45 UTC)


TAF: manca

Observacions i pronòstics meteorològics de més de 4000 aeroports (METAR i TAF).

Les estacions disponibles són els punts grocs i vermells al mapa.

Posi el ratolí al punt desitjat per veure el nom de l'estació.

Feu clic per veure les observacions i els pronòstics meteorològics.

Per canviar el mapa: feu clic els botons verds amb una creu de color negre per apropar; al botó verd amb un guió per allunyar la imatge; o en les fletxes verdes per a mapes adjacents.


METAR-TAF: